STARLINK-11232, 60401

Orbit data source: Space-Track

STARLINK-11232, 60401 is a payload satellite owned by SpaceX/Seattle (US) in LEO that was launched on Sat, 10 Aug 2024 UTC via an FALCON 9 launch vehicle from the Air Force Eastern Test Range (AFETR). Payloads include a variety of satellites, spacecraft, and rockets equipped with specific instruments for various scientific and technological missions. These include communications satellites like Starlink; space stations such as the ISS; scientific satellites like the Hubble; Earth observation satellites from companies like Planet Labs, Umbra, and HawkEye 360; GPS; miniature CubeSats for education and research; and military/defense satellites.

Loading next visibility...
STARLINK-11232 details
Identifier
60401, 2024-141D
Orbit
LEO
Last TLE update9 hours ago
Origin
Flag of USSpaceX/Seattle (US)
ManufacturerSpaceX/Seattle
MissionOperational spacecraft
Bus & MotorSTARLINK V2M, Unknown motor
Mass730 kg wet, ~700 kg dry
Launch date (UTC)
2024-08-10 (5 months ago)
Launch vehicle
FALCON 9
Launch site
Air Force Eastern Test Range (AFETR)
Object type
Payload
Rocket body
Debris
Shape & HBRUnknown
Radar Cross SectionLarge (>1 m²)

Expand to show TLE details & history

TLE from 9 hours ago
0 STARLINK-11232
1 60401U 24141D   25014.91802839  .00000097  00000-0  56682-5 0  9993
2 60401  53.1606 350.3916 0001629  85.4015 274.7189 15.69706359 25974
Epoch: 2025-01-14T22:01Z
Definitive object data (Epoch: 2025-01-14T22:01:57.652Z)
Latitude-0.00004°
Longitude-94.71648°
Altitude360.562 km
Speed7.694 km/s
True Right ascension23h 21m 33s
True Declination0° 00' 00"
Sunlit
Object was in daylight at TLE epoch
Visualization TLE readout
Latitude-16.54415°
Longitude-109.36711°
Altitude364.554 km
Speed7.691 km/s
Apparent Right ascension21h 15m 51s
Apparent Declination-29° 09' 10"
Sunlit
Object is in daylight
Visualization observer readout
Local Sidereal Time07:46:16
Azimuth293.475° NW
Elevation-68.732°
Doppler factor1
Orbital elements
Apogee altitude361.095 km
Perigee altitude358.9 km
Semi-major axis6,738.135 km
Eccentricity0.0001629
Inclination53.1606°
RAAN350.3916°
Arg. of periapsis85.4015°
True anomaly274.7003°
Mean anomaly274.7189°
Eccentric anomaly274.7096°
Mean motion3.92404 °/min
BSTAR0.0000056682
Orbital period91.74 mins
Loading maneuver chart data...
Loading historical data...
Loading historical data...
Loading historical data...
Loading historical data...
Loading historical data...
Loading historical data...
Loading historical data...

STARLINK-11232 Visibility forecast

Observer location: undefined°, undefined

Span
Click to sort rows by Start time (UTC) header in descending order
Start Az.
Max El. time (UTC)
Max El. Az.
Max El.
End time (UTC)
End Az.
4 mins2025-01-15 07:41:47.130Z321.282° NNW2025-01-15 07:43:47.130Z44.678° NE40.584°2025-01-15 07:45:47.130Z115.201° SE
4 mins2025-01-16 00:10:47.130Z188.143° SSW2025-01-16 00:12:47.130Z129.899° SE25.838°2025-01-16 00:14:47.130Z76.139° E
|